Home > Weather > Minden > Past weeks

Flag for Germany Past Weather in Minden, North Rhine-Westphalia, Germany — Yesterday and Last 2 Weeks

Now
68 °F

Mild.


Feels Like: 68 °F
Forecast: 63 / 82 °F
Wind: 2 mph from South

Location: Bueckeburg

Current Time: Jul 23, 2016 at 11:28:20 PM

Latest Report: Jul 23, 2016 at 10:20 PM


Visibility: 4 mi

Pressure: 30.09 "Hg

Humidity: 78%

Dew Point: 61 °F

Location of MindenLocation

Past Weather in Minden — Graph

°F

Minden Temperature Yesterday

Maximum temperature yesterday: 81 °F (at 11:20 AM)
Minimum temperature yesterday: 63 °F (at 5:20 AM)
Average temperature yesterday: 72 °F

High & Low Weather Summary for the Past Weeks

 TemperatureHumidityPressure
High90 °F (Jul 20, 3:20 PM)100% (Jul 17, 3:20 AM)30.24 "Hg (Jul 17, 3:20 AM)
Low54 °F (Jul 14, 6:20 AM)28% (Jul 17, 4:20 PM)29.74 "Hg (Jul 10, 8:20 PM)
Average68 °F69%30.02 "Hg
* Reported Jul 8 9:20 PM — Jul 23 9:20 PM, Minden, Weather by CustomWeather, © 2016

Note: Actual official high and low records may vary slightly from our data, if they occured in-between our weather recording intervals... More about our weather records

Advertising

Minden Weather History for the Previous 24 Hours

Scroll right to see more
 ConditionsComfort  
Time TempWeatherWind HumidityBarometerVisibility
9:20 PM
Sat, Jul 23
70 °FMild.1 mph64%30.09 "Hg4 mi
8:20 PM72 °FMild.2 mph61%30.07 "Hg4 mi
7:20 PM72 °FMild.3 mph69%30.07 "Hg4 mi
6:20 PM73 °FMild.6 mph61%30.07 "Hg4 mi
5:20 PM75 °FBroken clouds.2 mph57%30.07 "HgN/A
4:20 PM73 °FBroken clouds.6 mph61%30.09 "HgN/A
3:20 PM73 °FBroken clouds.8 mph61%30.09 "HgN/A
2:20 PM73 °FPartly sunny.3 mph65%30.09 "HgN/A
1:20 PM73 °FPartly sunny.3 mph65%30.09 "HgN/A
12:20 PM73 °FBroken clouds.1 mph69%30.09 "HgN/A
11:20 AM72 °FPartly sunny.2 mph73%30.09 "HgN/A
10:20 AM70 °FPartly sunny.2 mph78%30.07 "HgN/A
9:20 AM68 °FPartly sunny.2 mph83%30.07 "Hg5 mi
8:20 AM64 °FPartly sunny.3 mph94%30.07 "Hg5 mi
7:20 AM64 °FPartly sunny.5 mph88%30.04 "HgN/A
6:20 AM63 °FPartly cloudy.2 mph94%30.04 "HgN/A
5:20 AM61 °FCool.1 mph94%30.04 "Hg3 mi
4:20 AM63 °FMild.1 mph94%30.04 "Hg4 mi
3:20 AM63 °FMild.2 mph88%30.04 "Hg4 mi
2:20 AM63 °FMild.1 mph94%30.04 "Hg4 mi
1:20 AM64 °FMild.3 mph88%30.07 "Hg4 mi
12:20 AM64 °FMild.2 mph88%30.04 "Hg4 mi
11:20 PM
Fri, Jul 22
66 °FPassing clouds.3 mph83%30.04 "HgN/A
Weather by CustomWeather, © 2016

See weather overviewHow to use our weather pages